Location: Unspecified
(51.5147°N, 7.4673°E)
Time: 20:08:10
(UTC+01:00)

A-11 Canister half - Pass Details

Date: 20 February 2026
Orbit: 1512 x 1687 km, 47.2° (Epoch: 8 March)

Event Time Altitude Azimuth Distance (km) Brightness Sun altitude
Rises 01:11:59 0° 276° (W) 4,919 - -49.1°
Reaches altitude 10° 01:15:13 10° 274° (W) 3,915 - -49.0°
Maximum altitude 01:25:00 62° 197° (SSW) 1,792 - -48.6°
Drops below altitude 10° 01:34:25 10° 120° (ESE) 3,777 - -48.2°
Sets 01:37:29 0° 117° (ESE) 4,738 - -48.0°
